Borger, TX

9:25 AM CDT on April 23, 2017 (GMT -0500)
Hutchinson County

Weather History for KBGD - January, 2014

Change the Weather History Date:

Sunday, January 5, 2014

  Actual Average Record
Temperature  
Mean Temperature 18 °F 38 °F  
Max Temperature 23 °F 50 °F 78 °F (1956)
Min Temperature 13 °F 25 °F 0 °F (1971)
Degree Days  
Heating Degree Days 47 27  
Month to date heating degree days 145 139  
Since 1 July heating degree days 1702 1676  
Cooling Degree Days 0 0  
Month to date cooling degree days 0 0  
Year to date cooling degree days 0 0  
Moisture  
Dew Point 9 °F    
Average Humidity 66    
Maximum Humidity 88    
Minimum Humidity 43    
Precipitation  
Precipitation T in 0.01 in 0.48 in (1960)
Month to date precipitation 0.01 0.08  
Year to date precipitation 0.01 0.08  
Snow  
Snow 0.80 in - 6.70 in (1960)
Month to date snowfall 1.0  
Since 1 July snowfall 8.2  
Snow Depth 1.00 in    
Sea Level Pressure  
Sea Level Pressure 30.30 in    
Wind  
Wind Speed 11 mph (North)    
Max Wind Speed 21 mph    
Max Gust Speed 26 mph    
Visibility 9 miles    
Events Snow    
T = Trace of Precipitation, MM = Missing Value Source: NWS Daily Summary

Daily Weather History Graph

Daily Weather History Graph

Search for Another Location

Airport or City:

Trip Planner

Search our weather history database for the weather conditions in past years. The results will help you decide how hot, cold, wet, or windy it might be!

Date:

Astronomy

Jan. 05, 2014 Rise Set
Actual Time 7:55 AM CST 5:46 PM CST
Civil Twilight 7:27 AM CST 6:14 PM CST
Nautical Twilight 6:55 AM CST 6:46 PM CST
Astronomical Twilight 6:24 AM CST 7:17 PM CST
Moon 10:49 AM CST (1/5) 11:04 PM CST (1/5)
Length of Visible Light 10h 47m
Length of Day
9h 50m
Waxing Crescent, 25% of the Moon is Illuminated
Jan 5
Waxing Crescent
Jan 7
First Quarter
Jan 15
Full
Jan 23
Last Quarter
Jan 30
New

Hourly Weather History & Observations

Time (CST) Temp. Windchill Dew Point Humidity Pressure Visibility Wind Dir Wind Speed Gust Speed Precip Events Conditions
12:08 AM 21.9 °F 8.2 °F 18.0 °F 85% 30.06 in 1.5 mi North 16.1 mph 21.9 mph 0.00 in Snow Light Snow
12:51 AM 21.9 °F 11.0 °F 18.0 °F 85% 30.10 in 1.2 mi North 10.4 mph - 0.00 in   Overcast
12:56 AM 21.9 °F 11.0 °F 18.0 °F 85% 30.06 in - North 10.4 mph - N/A   Overcast
1:18 AM 21.9 °F 6.5 °F 17.1 °F 82% 30.05 in - North 20.7 mph 25.3 mph 0.00 in   Overcast
1:32 AM 21.9 °F 8.7 °F 16.0 °F 78% 30.07 in 10.0 mi North 15.0 mph - 0.00 in   Overcast
1:51 AM 21.9 °F 9.2 °F 16.0 °F 78% 30.12 in - North 13.8 mph - 0.00 in   Overcast
2:08 AM 21.9 °F 9.8 °F 16.0 °F 78% 30.09 in 10.0 mi NNW 12.7 mph - N/A   Overcast
2:40 AM 19.9 °F 6.2 °F 14.0 °F 78% 30.10 in 10.0 mi North 15.0 mph 25.3 mph N/A   Overcast
2:51 AM 19.9 °F 7.3 °F 15.1 °F 81% 30.16 in 10.0 mi North 12.7 mph - N/A   Overcast
3:13 AM 19.0 °F 7.5 °F 14.0 °F 81% 30.11 in 10.0 mi North 10.4 mph - N/A   Overcast
3:51 AM 18.0 °F 7.7 °F 12.9 °F 81% 30.19 in 10.0 mi NNW 8.1 mph - N/A   Clear
4:51 AM 16.0 °F 6.3 °F 12.0 °F 84% 30.20 in 10.0 mi NW 6.9 mph - N/A   Partly Cloudy
5:51 AM 16.0 °F 5.3 °F 10.9 °F 81% 30.21 in 10.0 mi NNW 8.1 mph - N/A   Clear
6:51 AM 16.0 °F 2.3 °F 8.1 °F 71% 30.24 in 10.0 mi NNW 12.7 mph - N/A   Clear
7:51 AM 12.9 °F 1.6 °F 7.0 °F 77% 30.30 in 10.0 mi NW 8.1 mph - N/A   Clear
8:51 AM 14.0 °F 0.5 °F 3.9 °F 64% 30.32 in 10.0 mi North 11.5 mph - N/A   Clear
9:51 AM 15.1 °F 0.5 °F 1.9 °F 56% 30.35 in 10.0 mi North 13.8 mph - N/A   Clear
10:51 AM 17.1 °F 3.6 °F -2.0 °F 43% 30.40 in 10.0 mi North 12.7 mph - N/A   Clear
11:51 AM 18.0 °F 3.6 °F -0.0 °F 45% 30.38 in 10.0 mi NNE 15.0 mph - N/A   Clear
12:51 PM 18.0 °F 5.4 °F 1.9 °F 50% 30.36 in 10.0 mi North 11.5 mph - N/A   Clear
1:51 PM 19.9 °F 8.6 °F 5.0 °F 52% 30.35 in 10.0 mi NNE 10.4 mph - N/A   Clear
2:51 PM 21.0 °F 9.3 °F 6.1 °F 53% 30.37 in 10.0 mi NNE 11.5 mph 16.1 mph N/A   Clear
3:51 PM 21.0 °F 9.3 °F 7.0 °F 55% 30.40 in 10.0 mi North 11.5 mph - N/A   Clear
4:51 PM 19.9 °F 6.7 °F 6.1 °F 55% 30.44 in 10.0 mi NNE 13.8 mph - N/A   Clear
5:51 PM 17.1 °F 2.5 °F 5.0 °F 59% 30.47 in 10.0 mi NNE 15.0 mph - N/A   Clear
6:51 PM 15.1 °F -0.1 °F 5.0 °F 64% 30.53 in 10.0 mi NNE 15.0 mph 20.7 mph N/A   Clear
7:51 PM 14.0 °F 0.5 °F 5.0 °F 67% 30.57 in 10.0 mi NNE 11.5 mph - N/A   Overcast
8:51 PM 15.1 °F 3.3 °F 6.1 °F 68% 30.60 in 10.0 mi NNE 9.2 mph - N/A   Overcast
9:51 PM 14.0 °F 2.0 °F 7.0 °F 74% 30.61 in 10.0 mi North 9.2 mph - N/A   Overcast
10:51 PM 14.0 °F 1.2 °F 6.1 °F 71% 30.61 in 10.0 mi NNE 10.4 mph - N/A   Overcast
11:51 PM 14.0 °F 3.9 °F 6.1 °F 71% 30.62 in 10.0 mi North 6.9 mph - N/A   Overcast